sat.trackr.live / text

‹ back to catalog

STARLINK-32402

NORAD 61708 · 2024-196B

PAYLOAD ACTIVE UNKNOWN

§ Identity

Operator
Country
US
Launch date
2024-10-30
Launch site
AFETR
Launch vehicle
Mass (kg)
RCS (m²)

Purposes: comms

External: N2YO · Heavens-Above · Gunter

§ Orbital elements

Epoch: 2026-05-25T03:42:18.162432Z

Period
94.11 min
Inclination
53.1606°
Eccentricity
0.0001415
Mean motion
15.30192013 rev/d
Perigee alt
474.3 km
Apogee alt
476.2 km
Semi-major
6,853.4 km
B*
3.5396e-5
RAAN
106.1732°
Arg perigee
79.6015°
Mean anomaly
280.5145°
Rev number
8,886

§ Raw data

STARLINK-324021 61708U 24196B   26145.15437688  .00000689  00000+0  35396-4 0  99962 61708  53.1606 106.1732 0001415  79.6015 280.5145 15.30192013 88864

JSON: /api/v1/satellites/61708 · /tle

For live sub-satellite position, see the globe view (requires WebGL).

§ Visibility from observer

Set your observer location to see the next 7 days of passes ≥ 10°. The values pass through the URL so the page stays shareable.

No JS? Fill the form by hand. The geolocation button needs JavaScript.